DW8102 Weather Reports


time (UTC)temp
C
wind
direction
speed
KPH
gust
KPH
rain 1hr
cm
rain 24hr
cm
rain mn
cm
humidity
%
barometer
mb
20260502231543 14 316 3.2 9.7 0.00 0.00 0.00 57 1008.3
20260502230039 14 307 0.0 0.0 0.00 0.00 0.00 62 1007.9
20260502223033 15 250 0.0 3.2 0.00 0.00 0.00 55 1007.7
20260502221529 16 271 0.0 0.0 0.00 0.00 0.00 51 1007.6
20260502220032 16 253 0.0 4.8 0.00 0.00 0.00 50 1007.6
20260502213031 16 224 0.0 6.4 0.00 0.00 0.00 47 1007.7
20260502211524 16 204 0.0 8.0 0.00 0.00 0.00 47 1007.7
20260502210024 17 203 0.0 6.4 0.00 0.00 0.00 47 1007.8
20260502203021 17 226 0.0 9.7 0.00 0.00 0.00 48 1007.9
20260502201531 17 299 0.0 11.3 0.00 0.00 0.00 48 1007.9
20260502200018 17 215 1.6 9.7 0.00 0.00 0.00 49 1007.9
20260502193017 18 238 3.2 16.1 0.00 0.00 0.00 47 1007.8
20260502191518 18 153 0.0 19.3 0.00 0.00 0.00 45 1007.9
20260502190015 18 229 4.8 17.7 0.00 0.00 0.00 43 1007.8
20260502183010 18 210 8.0 16.1 0.00 0.00 0.00 41 1007.5
20260502181505 19 282 4.8 20.9 0.00 0.00 0.00 40 1007.5
20260502163108 21 262 3.2 16.1 0.00 0.00 0.00 38 1007.3
20260502161554 21 260 3.2 12.9 0.00 0.00 0.00 40 1007.5
20260502151543 20 276 8.0 17.7 0.00 0.00 0.00 39 1008.4
20260502123016 21 241 9.7 29.0 0.00 0.00 0.00 41 1010.2
20260502121514 21 200 8.0 30.6 0.00 0.00 0.00 42 1010.6
20260502114611 21 8 12.9 41.8 0.00 0.00 0.00 40 1010.8
20260502113011 21 200 9.7 25.7 0.00 0.00 0.00 41 1011.1
20260502111508 20 210 8.0 20.9 0.00 0.00 0.00 42 1011.2
20260502110008 20 219 6.4 19.3 0.00 0.00 0.00 42 1011.4
20260502104605 20 269 1.6 19.3 0.00 0.00 0.00 44 1011.8
20260502103004 19 302 4.8 17.7 0.00 0.00 0.00 44 1012.0
20260502101502 19 322 8.0 24.1 0.00 0.00 0.00 44 1012.2
20260502091502 18 239 9.7 32.2 0.00 0.00 0.00 44 1012.8
20260502070053 15 208 8.0 17.7 0.00 0.00 0.00 46 1014.1
20260502064548 15 156 8.0 19.3 0.00 0.00 0.00 47 1014.3
20260502063044 14 231 3.2 16.1 0.00 0.00 0.00 49 1014.3
20260502061544 13 282 4.8 20.9 0.00 0.00 0.00 49 1014.4
20260502060045 13 206 3.2 16.1 0.00 0.00 0.00 51 1014.6
20260502054541 13 198 8.0 19.3 0.00 0.00 0.00 52 1014.6
20260502053043 12 228 4.8 17.7 0.00 0.00 0.00 54 1014.6
20260502051539 12 226 4.8 17.7 0.00 0.00 0.00 54 1014.7
20260502050040 12 232 8.0 20.9 0.00 0.00 0.00 55 1014.7
20260502044544 12 239 8.0 20.9 0.00 0.00 0.00 56 1014.7
20260502043044 12 214 6.4 20.9 0.00 0.00 0.00 56 1014.7
20260502041545 11 268 6.4 16.1 0.00 0.00 0.00 58 1014.7
20260502040036 11 197 8.0 19.3 0.00 0.00 0.00 58 1014.8
20260502034538 11 225 8.0 22.5 0.00 0.00 0.00 59 1014.9
20260502033033 11 228 6.4 16.1 0.00 0.00 0.00 59 1015.0
20260502031532 11 200 12.9 24.1 0.00 0.00 0.00 59 1015.0
20260502030030 11 243 8.0 22.5 0.00 0.00 0.00 60 1015.1
20260502024528 11 290 8.0 22.5 0.00 0.00 0.00 60 1015.3
20260502023026 11 275 9.7 22.5 0.00 0.00 0.00 60 1015.3
20260502021525 11 277 6.4 19.3 0.00 0.00 0.00 60 1015.5
20260502020022 11 198 8.0 19.3 0.00 0.00 0.00 60 1015.6
20260502014539 11 226 4.8 19.3 0.00 0.00 0.00 59 1015.8
20260502013018 11 165 4.8 11.3 0.00 0.00 0.00 59 1015.8
20260502011515 12 193 1.6 12.9 0.00 0.00 0.00 58 1016.1
20260502010012 12 278 0.0 8.0 0.00 0.00 0.00 59 1016.3
20260502004510 12 193 4.8 14.5 0.00 0.00 0.00 57 1016.4
20260502003012 12 198 6.4 14.5 0.00 0.00 0.00 57 1016.5
20260502001515 12 339 8.0 24.1 0.00 0.00 0.00 56 1016.6
20260502000020 12 243 8.0 20.9 0.00 0.00 0.00 56 1016.7
20260501234501 12 210 6.4 19.3 0.00 0.00 0.00 55 1016.8
20260501233103 12 236 9.7 19.3 0.00 0.00 0.00 54 1016.8